Barking Sands, HI

1:44 AM HST on August 19, 2017 (GMT -1000)
Barking Sands PMRF

Weather History for PHBK - February, 2013

Change the Weather History Date:

Friday, February 8, 2013

  Actual Average Record
Temperature  
Mean Temperature 73 °F -  
Max Temperature 80 °F 81 °F 85 °F (1974)
Min Temperature 66 °F 62 °F 58 °F (1957)
Cooling Degree Days 8    
Growing Degree Days 23 (Base 50)    
Moisture  
Dew Point 67 °F    
Average Humidity 82    
Maximum Humidity 90    
Minimum Humidity 69    
Precipitation  
Precipitation 0.00 in - - ()
Sea Level Pressure  
Sea Level Pressure 30.10 in    
Wind  
Wind Speed 4 mph (NNE)    
Max Wind Speed 12 mph    
Max Gust Speed -    
Visibility 10 miles    
Events      
Averages and records for this station are not official NWS values.
T = Trace of Precipitation, MM = Missing Value Source: NWS Daily Summary

Daily Weather History Graph

Daily Weather History Graph

Search for Another Location

Airport or City:

Trip Planner

Search our weather history database for the weather conditions in past years. The results will help you decide how hot, cold, wet, or windy it might be!

Date:

Astronomy

Feb. 08, 2013 Rise Set
Actual Time 7:14 AM HST 6:32 PM HST
Civil Twilight 6:51 AM HST 6:55 PM HST
Nautical Twilight 6:24 AM HST 7:22 PM HST
Astronomical Twilight 5:58 AM HST 7:48 PM HST
Moon 5:47 AM HST (2/8) 5:21 PM HST (2/8)
Length of Visible Light 12h 04m
Length of Day
11h 18m
Waning Crescent, 3% of the Moon is Illuminated
Feb 8
Waning Crescent
Feb 9
New
Feb 17
First Quarter
Feb 25
Full
Mar 4
Last Quarter

Hourly Weather History & Observations

Time (HST) Temp. Heat Index Dew Point Humidity Pressure Visibility Wind Dir Wind Speed Gust Speed Precip Events Conditions
12:56 AM 70.0 °F - 66.9 °F 90% 30.13 in 10.0 mi East 3.5 mph - N/A   Clear
1:56 AM 69.1 °F - 64.9 °F 87% 30.13 in 10.0 mi East 3.5 mph - N/A   Scattered Clouds
2:03 AM 69.8 °F - 66.2 °F 88% 30.12 in 10.0 mi East 4.6 mph - N/A   Mostly Cloudy
2:15 AM 69.8 °F - 64.4 °F 83% 30.11 in 10.0 mi Calm Calm - N/A   Scattered Clouds
2:56 AM 69.1 °F - 64.0 °F 84% 30.11 in 10.0 mi East 3.5 mph - N/A   Clear
3:56 AM 68.0 °F - 64.9 °F 90% 30.09 in 10.0 mi East 4.6 mph - N/A   Clear
4:56 AM 66.9 °F - 62.1 °F 84% 30.09 in 10.0 mi East 3.5 mph - N/A   Clear
5:56 AM 66.9 °F - 64.0 °F 90% 30.10 in 10.0 mi East 3.5 mph - N/A   Clear
6:56 AM 66.9 °F - 61.0 °F 81% 30.12 in 10.0 mi East 3.5 mph - N/A   Clear
7:56 AM 70.0 °F - 66.0 °F 87% 30.12 in 10.0 mi East 4.6 mph - N/A   Clear
8:56 AM 75.9 °F - 68.0 °F 76% 30.13 in 10.0 mi Calm Calm - N/A   Clear
9:56 AM 75.9 °F - 69.1 °F 79% 30.14 in 10.0 mi NW 5.8 mph - N/A   Partly Cloudy
10:56 AM 77.0 °F - 68.0 °F 74% 30.14 in 10.0 mi NW 6.9 mph - N/A   Partly Cloudy
11:51 AM 78.8 °F - 71.6 °F 78% 30.12 in 10.0 mi NNW 9.2 mph - N/A   Partly Cloudy
11:56 AM 78.1 °F - 72.0 °F 81% 30.13 in 10.0 mi NNW 8.1 mph - N/A   Clear
12:21 PM 78.8 °F - 71.6 °F 78% 30.11 in 10.0 mi NW 9.2 mph - N/A   Partly Cloudy
12:56 PM 79.0 °F - 73.0 °F 82% 30.11 in 10.0 mi NNW 8.1 mph - N/A   Clear
1:56 PM 79.0 °F - 71.1 °F 77% 30.08 in 10.0 mi NNW 11.5 mph - N/A   Partly Cloudy
2:56 PM 80.1 °F 82.9 °F 69.1 °F 69% 30.08 in 10.0 mi North 10.4 mph - N/A   Clear
3:56 PM 79.0 °F - 69.1 °F 72% 30.07 in 10.0 mi NNW 11.5 mph - N/A   Partly Cloudy
4:56 PM 78.1 °F - 69.1 °F 74% 30.07 in 10.0 mi NNW 9.2 mph - N/A   Scattered Clouds
5:56 PM 77.0 °F - 70.0 °F 79% 30.08 in 10.0 mi NNW 8.1 mph - N/A   Mostly Cloudy
6:06 PM 77.0 °F - 69.8 °F 78% 30.07 in 10.0 mi North 5.8 mph - N/A   Mostly Cloudy
6:21 PM 75.2 °F - 71.6 °F 89% 30.08 in 10.0 mi NNW 6.9 mph - N/A   Mostly Cloudy
6:51 PM 75.2 °F - 69.8 °F 83% 30.08 in 10.0 mi North 4.6 mph - N/A   Scattered Clouds
6:56 PM 75.9 °F - 72.0 °F 87% 30.09 in 10.0 mi North 3.5 mph - N/A   Mostly Cloudy
7:56 PM 73.9 °F - 68.0 °F 82% 30.09 in 10.0 mi Calm Calm - N/A   Partly Cloudy
8:09 PM 73.4 °F - 69.8 °F 88% 30.09 in 10.0 mi Calm Calm - N/A   Mostly Cloudy
8:21 PM 71.6 °F - 64.4 °F 78% 30.09 in 10.0 mi Calm Calm - N/A   Scattered Clouds
8:56 PM 71.1 °F - 64.9 °F 81% 30.11 in 10.0 mi Calm Calm - N/A   Clear
9:56 PM 70.0 °F - 64.0 °F 81% 30.11 in 10.0 mi Calm Calm - N/A   Clear
10:56 PM 68.0 °F - 64.9 °F 90% 30.12 in 10.0 mi Calm Calm - N/A   Clear
11:56 PM 66.9 °F - 62.1 °F 84% 30.11 in 10.0 mi East 3.5 mph - N/A   Clear